Вернуться в каталог

STARLINK-30991

АктивенСвязьVLEO
NORAD 58484·PAYLOAD·🇺🇸 United States

Запущен Dec 3, 2023 с Cape Canaveral Space Force Station

Loading…

Ближайшие Пролёты (ближайшие 24 часа)

TLE

СвежийSource: CelesTrak SupGP

Эпоха: Sep 14, 2026, 21:11 UTC

1 58484C 23186M   26257.88312500  .00044290  00000+0  16042-2 0  2578
2 58484  43.0029  74.8018 0001368 266.6740 152.8719 15.27554998    15

Отслеживайте STARLINK-30991 в реальном времени с AllMySat

Download on the App Store